Location: Maccacari
(45.1333°N, 11.1333°E)
Time: 23:43:09
(UTC+00:00)

Tiros 1 despin weight - Pass Details

Date: 24 January 2021
Orbit: 593 x 642 km, 48.2° (Epoch: 07 March)

Event Time Altitude Azimuth Distance (km) Brightness Sun altitude
Rises 16:55:55 0° 283° (WNW) 2,867 ? -8.0°
Reaches altitude 10° 16:58:15 10° 287° (WNW) 1,954 ? -8.4°
Maximum altitude 17:02:41 62° 8° (N) 680 ? -9.1°
Enters shadow 17:06:44 12° 89° (E) 1,798 ? -9.8°
Drops below altitude 10° 17:07:05 10° 90° (E) 1,930 - -9.9°
Sets 17:09:23 0° 94° (E) 2,827 - -10.2°
